Greer, SC

12:49 PM EST on February 08, 2016 (GMT -0500)
Greenville-Spartanburg International

Weather History for KGSP - August, 2012

Change the Weather History Date:

Sunday, August 5, 2012

  Actual Average Record
Temperature  
Mean Temperature 79 °F 80 °F  
Max Temperature 88 °F 90 °F 99 °F (1954)
Min Temperature 70 °F 69 °F 56 °F (1985)
Degree Days  
Heating Degree Days 0 0  
Month to date heating degree days 0 0  
Since 1 June heating degree days 0 2  
Since 1 July heating degree days 0 0  
Cooling Degree Days 14 15  
Month to date cooling degree days 77 75  
Year to date cooling degree days 1272 1087  
Since 1 June cooling degree days 924 886  
Growing Degree Days 28 (Base 50)    
Moisture  
Dew Point 71 °F    
Average Humidity 74    
Maximum Humidity 93    
Minimum Humidity 55    
Precipitation  
Precipitation T in 0.16 in 2.57 in (2003)
Month to date precipitation 0.09 0.78  
Year to date precipitation 21.29 28.81  
Snow  
Snow 0.00 in 0.00 in 0.00 in ()
Month to date snowfall 0.0 0.0  
Since 1 June snowfall T 0.0  
Since 1 July snowfall T 0.0  
Snow Depth 0.00 in    
Sea Level Pressure  
Sea Level Pressure 30.16 in    
Wind  
Wind Speed 4 mph (South)    
Max Wind Speed 21 mph    
Max Gust Speed 24 mph    
Visibility 9 miles    
Events      
T = Trace of Precipitation, MM = Missing Value Source: NWS Daily Summary

Daily Weather History Graph

Daily Weather History Graph

Search for Another Location

Airport or City:

Trip Planner

Search our weather history database for the weather conditions in past years. The results will help you decide how hot, cold, wet, or windy it might be!

Date:

Astronomy

Aug. 05, 2012 Rise Set
Actual Time 6:41 AM EDT 8:27 PM EDT
Civil Twilight 6:14 AM EDT 8:54 PM EDT
Nautical Twilight 5:41 AM EDT 9:27 PM EDT
Astronomical Twilight 5:06 AM EDT 10:02 PM EDT
Moon 10:18 PM EDT (8/5) 10:17 AM EDT (8/5)
Length of Visible Light 14h 40m
Length of Day
13h 45m
Waning Gibbous, 86% of the Moon is Illuminated
Aug 5
Waning Gibbous
Aug 9
Last Quarter
Aug 17
New
Aug 24
First Quarter
Aug 31
Full

Hourly Weather History & Observations

Time (EDT) Temp. Heat Index Dew Point Humidity Pressure Visibility Wind Dir Wind Speed Gust Speed Precip Events Conditions
12:53 AM 73.9 °F - 71.1 °F 91% 30.17 in 10.0 mi Calm Calm - N/A   Clear
1:53 AM 73.9 °F - 71.1 °F 91% 30.17 in 10.0 mi Calm Calm - N/A   Clear
2:53 AM 73.0 °F - 71.1 °F 93% 30.16 in 10.0 mi Calm Calm - N/A   Clear
3:23 AM 73.4 °F - 71.6 °F 94% 30.19 in 10.0 mi Calm Calm - N/A   Mostly Cloudy
3:53 AM 72.0 °F - 70.0 °F 93% 30.15 in 10.0 mi Calm Calm - N/A   Scattered Clouds
4:53 AM 72.0 °F - 70.0 °F 93% 30.16 in 8.0 mi Calm Calm - N/A   Clear
5:32 AM 69.8 °F - 69.8 °F 100% 30.19 in 1.8 mi Calm Calm - N/A   Clear
5:42 AM 71.6 °F - 69.8 °F 94% 30.20 in 3.0 mi Calm Calm - N/A   Scattered Clouds
5:53 AM 72.0 °F - 70.0 °F 93% 30.16 in 8.0 mi Calm Calm - N/A   Partly Cloudy
6:53 AM 71.1 °F - 69.1 °F 93% 30.18 in 6.0 mi SE 3.5 mph - N/A   Clear
7:53 AM 73.9 °F - 71.1 °F 91% 30.18 in 10.0 mi South 4.6 mph - N/A   Partly Cloudy
8:39 AM 77.0 °F - 71.6 °F 83% 30.24 in 10.0 mi SSW 4.6 mph - N/A   Mostly Cloudy
8:53 AM 75.9 °F - 72.0 °F 87% 30.21 in 10.0 mi WSW 4.6 mph - N/A   Mostly Cloudy
9:22 AM 78.8 °F - 71.6 °F 78% 30.24 in 10.0 mi West 3.5 mph - N/A   Scattered Clouds
9:53 AM 78.1 °F - 72.0 °F 81% 30.22 in 10.0 mi SW 4.6 mph - N/A   Scattered Clouds
10:53 AM 82.0 °F 86.7 °F 72.0 °F 71% 30.21 in 10.0 mi Variable 4.6 mph - N/A   Partly Cloudy
11:53 AM 82.4 °F 86.3 °F 69.8 °F 66% 30.24 in 10.0 mi ESE 4.6 mph - N/A   Clear
12:53 PM 84.9 °F 88.2 °F 68.0 °F 57% 30.18 in 10.0 mi SSE 4.6 mph - N/A   Scattered Clouds
1:53 PM 84.9 °F 88.8 °F 69.1 °F 59% 30.16 in 10.0 mi SW 6.9 mph - N/A   Mostly Cloudy
2:53 PM 87.1 °F 92.0 °F 70.0 °F 57% 30.13 in 10.0 mi SE 6.9 mph - N/A   Clear
3:53 PM 88.0 °F 92.9 °F 70.0 °F 55% 30.11 in 10.0 mi SSE 5.8 mph - N/A   Clear
4:53 PM 82.9 °F 86.5 °F 69.1 °F 63% 30.11 in 10.0 mi South 19.6 mph 23.0 mph N/A   Mostly Cloudy
5:53 PM 82.9 °F 88.0 °F 72.0 °F 69% 30.10 in 10.0 mi SSE 4.6 mph - 0.00 in   Overcast
6:53 PM 82.9 °F 87.5 °F 71.1 °F 67% 30.09 in 10.0 mi SSE 3.5 mph - N/A   Overcast
7:53 PM 81.0 °F 86.2 °F 73.9 °F 79% 30.12 in 10.0 mi SE 4.6 mph - N/A   Partly Cloudy
8:53 PM 80.1 °F 83.8 °F 72.0 °F 76% 30.11 in 10.0 mi Calm Calm - N/A   Clear
9:53 PM 78.1 °F - 71.1 °F 79% 30.12 in 10.0 mi Calm Calm - N/A   Clear
10:53 PM 78.1 °F - 70.0 °F 76% 30.11 in 10.0 mi Calm Calm - N/A   Clear
11:53 PM 75.9 °F - 71.1 °F 85% 30.11 in 10.0 mi South 5.8 mph - N/A   Clear